{"data":{"norad_id":59259,"epoch":"2026-05-25T03:23:45.168864Z","epoch_age_seconds":73011,"freshness":"FRESH","line1":"1 59259U 24050F   26145.14149501  .00000343  00000+0  23695-4 0  9992","line2":"2 59259  53.1598 185.8881 0001039  86.3540 273.7579 15.30196832122251","mean_motion":15.30196832,"eccentricity":0.0001039,"inclination_deg":53.1598,"raan_deg":185.8881,"arg_perigee_deg":86.354,"mean_anomaly_deg":273.7579,"bstar":2.3695e-5,"rev_number":12225,"period_min":94.105540534801,"perigee_km":474.51246424979,"apogee_km":475.93659277542,"semimajor_km":6853.3615285126,"source":"CELESTRAK","updated_at":"2026-05-25T13:38:18.874847Z"}}